SCP
0 -0 -0 0 -0 -0 0 0 0 0 0 0 0 0 0 0 0 0 -0 0 0 0 0 0 0 0 0 0 0 0 0 0 0 0 0 0 0 0 0 0 0 0 0
-0 -0 -0 0 -0 0 0 0 1 0 0 0 0 0 0 0 0 0 -0 -0 0 0 0 0 0 0 0 0 0 0 0 0 0 0 0 0 -0 0 0 0 0 0 0
0 0 0 -0 0 1 1 1 1 1 1 0 0 0 0 0 0 -0 -0 0 0 0 0 0 0 0 0 0 0 0 0 0 0 0 0 0 0 0 0 0 0 0 0
0 0 -0 0 1 1 1 1 1 1 1 1 0 0 0 0 0 0 -0 -0 -0 -0 -0 0 0 0 0 0 0 0 0 0 0 0 0 0 0 0 0 0 0 0 0
0 0 0 0 0 1 2 1 1 1 0 0 0 0 0 0 0 0 0 0 0 -0 -0 -0 -0 -0 0 0 0 0 0 0 0 0 0 0 0 0 0 0 0 0 0
0 0 0 1 1 1 1 1 1 1 0 0 0 0 0 0 0 0 0 0 0 -0 -0 -0 0 -0 0 0 -0 0 0 0 1 1 0 0 0 0 0 0 0 0 0
0 1 1 1 1 1 1 1 1 0 0 0 0 0 0 0 0 0 0 0 0 0 0 0 0 0 0 0 0 -0 0 0 1 1 0 0 0 0 0 0 0 0 0
1 1 1 1 1 1 1 1 1 1 0 0 0 0 0 0 0 0 0 0 0 0 0 0 0 0 0 0 0 0 0 0 0 0 0 0 0 0 1 0 0 0 0
1 0 1 1 1 1 1 1 0 0 0 0 0 0 0 0 0 0 0 0 0 0 0 0 0 0 0 0 0 0 0 0 0 -0 -0 0 0 0 0 1 1 1 0
0 0 0 0 0 0 0 0 1 1 0 0 0 0 0 0 0 0 0 0 0 0 0 0 0 0 0 -0 0 0 0 0 0 0 0 -0 -0 0 0 1 1 2 1
0 0 0 0 0 0 0 0 0 0 0 0 0 0 0 0 0 0 0 0 0 0 0 0 0 0 0 0 0 0 0 0 0 0 0 0 0 0 0 0 1 1 1
0 0 0 0 0 0 0 0 0 0 0 0 0 0 1 0 0 0 0 0 0 0 0 0 0 0 0 0 0 0 0 0 0 0 0 0 0 0 0 0 0 1 1
0 0 0 0 0 0 0 0 0 0 0 0 0 0 0 0 1 1 1 0 0 0 0 1 0 0 0 0 0 0 0 0 0 0 0 0 0 -0 0 0 0 0 0
0 0 0 0 0 0 0 0 0 0 0 0 0 0 0 0 0 0 1 1 0 0 0 0 0 0 0 0 0 0 0 0 0 0 0 0 0 0 0 0 0 0 0
0 0 0 0 0 0 0 0 0 0 0 0 0 0 0 0 0 0 0 0 0 0 0 0 0 0 0 0 0 0 0 0 0 0 0 0 0 0 0 0 0 0 0
0 0 0 0 0 0 0 0 0 0 0 0 0 0 0 0 0 0 0 0 0 0 0 0 0 0 0 1 0 0 0 0 0 0 0 0 0 0 0 0 0 0 0
0 0 0 0 0 0 0 0 0 0 0 0 0 0 0 0 0 0 0 0 0 0 0 0 0 0 0 1 1 0 0 0 0 0 0 0 0 0 0 0 0 0 0
0 0 0 0 0 0 0 0 0 0 0 0 0 0 0 0 0 0 0 0 0 0 0 0 0 0 1 1 1 1 1 0 0 0 0 0 0 0 0 0 0 0 0
0 0 0 0 0 0 0 0 0 0 0 0 0 0 0 0 0 0 0 0 0 0 0 0 0 0 0 0 1 1 1 0 0 0 0 0 0 0 0 0 0 0 0
0 0 0 0 0 0 0 0 0 0 0 0 0 0 0 0 0 0 0 0 0 0 0 0 0 0 0 0 0 0 1 1 1 0 0 0 0 0 0 0 0 0 0
0 0 0 0 0 0 0 0 0 0 0 0 0 0 0 0 0 0 0 0 0 0 0 0 0 0 0 0 0 0 0 0 0 0 0 1 1 0 0 0 0 0 0
0 0 0 0 0 0 0 0 0 0 0 0 0 0 0 0 0 0 0 0 0 0 0 0 0 0 0 0 0 0 0 0 0 0 0 1 1 1 0 0 0 0 0
0 0 0 0 0 0 0 0 0 0 0 0 0 0 0 0 0 0 0 0 0 0 0 0 0 0 0 0 0 0 0 0 1 1 1 1 1 1 0 0 0 0 0
0 0 0 0 0 0 0 0 0 0 0 0 0 0 0 0 0 0 0 0 0 0 0 0 0 0 0 0 0 0 0 0 1 1 1 0 0 0 0 0 0 0 0
0 0 0 0 0 0 0 0 0 0 0 0 0 0 0 0 0 0 0 -0 0 0 0 0 0 0 0 0 0 0 0 0 0 0 0 0 0 0 0 0 0 0 0
-0 0 0 0 0 0 0 0 0 0 0 0 0 0 0 0 0 0 0 0 0 0 0 0 0 0 0 0 0 0 0 0 0 0 0 0 0 0 0 0 0 0 0
Wind_Speed_500mb
34 69 75 75 67 51 58 55 51 58 53 58 63 62 59 64 62 73 48 32 42 44 43 45 47 41 38 35 33 32 34 33 39 33 29 24 26 22 17 20 19 17 14
37 62 67 62 55 60 57 28 23 23 38 47 46 44 52 50 28 10 25 25 40 44 44 44 48 44 45 41 41 38 34 32 35 33 30 27 26 25 22 23 23 19 18
53 57 52 47 45 46 42 39 36 30 33 37 34 31 32 27 16 8 17 31 27 38 43 46 46 46 49 50 51 45 38 33 33 37 31 28 25 26 22 21 23 20 17
32 39 44 34 35 38 41 43 34 35 33 33 35 33 33 30 33 29 30 23 31 45 44 48 51 48 48 52 50 51 43 35 35 36 32 28 27 24 24 22 23 23 19
52 44 37 35 34 39 42 28 23 29 33 35 36 39 36 37 38 40 39 47 51 57 61 59 52 51 49 50 48 45 45 36 39 33 33 31 28 28 28 25 25 22 24
17 17 14 13 21 25 28 30 29 32 37 33 30 29 34 43 45 45 49 53 55 59 60 53 45 41 38 36 33 42 46 41 39 32 32 34 27 22 25 25 24 27 31
8 16 19 19 22 28 32 34 37 37 32 34 36 35 41 42 45 48 47 48 39 29 25 35 40 36 30 30 31 36 41 35 34 30 36 36 33 20 20 26 29 30 33
15 12 13 15 15 17 21 24 27 29 33 34 37 41 44 36 38 39 40 35 26 24 33 39 25 16 14 18 26 34 38 48 40 39 39 37 36 28 26 27 27 34 35
17 18 19 20 20 19 19 19 18 23 25 29 32 37 45 49 40 34 37 41 36 33 32 32 20 14 11 18 29 35 41 47 33 27 26 25 20 27 32 38 42 37 36
12 12 12 17 19 20 23 27 26 30 34 38 41 43 43 44 37 39 38 46 52 49 39 29 27 25 32 24 24 16 31 45 29 28 33 23 21 28 30 36 42 48 46
11 19 26 30 32 34 36 39 41 44 47 51 54 54 52 51 48 44 46 54 57 57 52 42 32 32 26 29 33 34 38 43 39 36 38 33 32 31 36 32 42 49 49
33 39 43 44 44 45 46 47 47 48 53 57 61 64 64 62 61 60 56 54 53 57 58 54 51 44 38 32 31 27 19 19 26 38 48 52 44 42 43 45 34 45 52
41 43 46 50 52 50 50 52 54 55 57 59 60 63 68 67 67 65 66 62 59 59 60 60 59 58 51 45 41 38 26 20 24 31 37 42 54 56 51 53 56 50 48
45 50 55 58 53 49 49 49 51 52 52 54 58 61 61 62 61 58 56 55 59 59 59 60 63 65 65 61 53 50 45 33 30 27 35 44 50 52 54 47 48 50 50
53 58 58 56 57 58 56 54 53 53 51 49 52 56 62 72 71 63 55 51 48 44 45 49 55 56 58 65 65 61 57 46 31 25 36 45 51 53 56 47 44 47 53
59 59 59 61 63 64 66 69 64 63 62 62 65 68 72 71 66 73 77 69 58 54 61 64 69 63 62 56 50 57 58 54 39 33 38 46 51 50 52 47 44 47 51
60 63 67 69 69 71 71 71 76 77 77 80 82 80 72 71 73 66 61 67 73 62 63 60 63 67 72 68 59 48 58 60 45 44 48 48 52 48 51 47 48 45 47
41 40 39 41 48 54 56 58 62 68 74 75 71 75 68 60 57 58 63 64 64 69 65 59 63 58 62 70 70 64 57 58 66 67 64 55 57 51 51 51 45 45 42
44 45 45 52 57 53 62 73 77 81 86 89 87 83 79 75 72 68 63 60 62 61 60 62 58 61 60 54 58 60 60 64 67 68 63 60 60 56 53 53 47 41 38
47 48 51 55 63 74 84 91 99 101 95 92 91 95 93 89 88 77 67 62 58 59 54 57 55 48 47 47 44 46 49 51 54 63 66 67 65 58 54 51 52 47 45
49 52 60 71 83 87 95 105 99 85 79 80 82 83 84 85 88 82 77 73 57 49 52 50 39 44 48 50 51 52 55 57 61 64 63 63 61 56 52 51 54 49 52
54 64 77 85 92 96 100 78 71 70 71 73 75 73 69 72 86 88 86 79 68 56 49 49 46 45 40 48 48 50 50 50 52 58 60 54 52 52 47 45 48 53 52
66 76 84 92 91 79 70 69 70 71 74 71 69 74 74 66 82 61 76 77 71 67 67 59 50 43 41 43 44 48 52 50 52 57 58 57 53 50 45 48 49 55 55
74 79 82 71 59 58 60 61 65 65 61 65 70 70 63 63 64 71 56 61 65 51 48 54 58 48 47 50 53 57 60 60 54 46 48 54 55 50 52 53 54 65 65
76 72 57 53 50 54 60 59 64 59 59 64 65 55 48 47 51 49 62 60 35 45 40 40 44 48 51 54 58 64 67 69 71 59 54 56 52 49 49 50 51 66 59
66 49 44 41 43 48 54 55 57 51 50 52 46 37 33 33 34 37 31 48 55 28 26 30 34 39 44 47 46 42 46 47 49 54 51 50 52 50 48 54 65 58 57
Wind_Direction_500mb
268 238 243 266 260 269 272 278 266 266 266 269 273 276 282 285 290 289 251 258 253 261 264 270 269 267 265 265 266 261 259 270 275 283 293 291 294 298 277 279 280 296 308
214 228 250 261 266 265 273 285 284 281 275 270 279 282 277 301 315 261 230 272 283 272 269 267 270 270 272 270 264 258 259 260 266 278 287 295 286 294 284 280 276 279 294
235 230 255 258 258 260 267 275 271 267 271 273 280 282 280 292 250 220 257 295 292 297 286 280 277 273 273 268 267 262 252 252 261 268 280 290 284 284 283 275 281 270 278
257 273 266 256 265 262 269 274 262 256 266 276 281 278 285 284 276 282 277 276 269 294 291 289 290 280 278 280 270 267 262 256 258 267 277 283 282 275 275 271 283 278 276
263 270 271 261 262 270 274 273 264 264 272 274 276 270 271 278 283 284 282 273 276 286 290 291 283 276 278 280 275 270 263 266 255 260 269 275 277 268 272 282 278 280 272
259 257 263 255 258 269 270 269 273 269 270 277 288 283 270 279 285 284 286 279 280 288 287 286 282 279 282 267 272 261 257 250 257 253 261 264 270 276 275 276 274 279 285
256 273 279 287 281 276 275 267 261 267 273 274 278 279 283 287 287 283 277 276 284 298 303 317 280 267 268 266 270 262 254 257 265 263 258 258 264 264 269 264 270 278 283
238 248 274 276 286 293 292 283 269 270 274 279 280 281 283 282 290 282 272 262 260 294 306 326 308 275 265 273 284 277 269 261 261 263 266 263 257 254 258 259 267 270 277
228 237 251 253 266 273 271 275 270 272 285 288 287 277 277 281 282 272 254 241 275 295 311 321 306 280 328 275 264 275 282 272 265 268 278 273 273 261 259 250 250 258 269
221 260 270 277 278 271 272 267 267 269 273 277 281 280 279 279 275 261 264 270 277 284 292 298 291 274 283 257 267 301 305 284 264 280 263 259 279 282 269 262 263 259 255
308 309 312 309 305 300 293 288 285 281 277 275 274 274 273 271 268 263 265 274 277 281 284 286 287 284 278 268 256 254 250 264 270 274 269 263 257 264 264 283 269 263 255
315 312 310 309 306 302 296 293 291 286 280 277 278 277 274 271 271 269 268 269 273 277 275 278 284 289 279 270 263 256 260 295 306 295 289 290 290 279 273 275 286 258 262
307 307 308 308 308 305 302 299 295 290 288 285 282 279 276 275 274 270 266 268 270 270 269 270 274 279 279 272 269 266 252 271 288 304 314 316 302 293 281 274 273 261 264
309 311 313 312 308 304 302 299 299 298 295 291 286 282 280 277 274 274 276 278 269 269 268 267 268 266 269 270 266 264 260 260 271 295 311 312 313 305 289 282 277 275 261
308 307 304 300 299 298 295 294 294 293 292 293 298 297 293 286 279 278 280 281 277 278 274 265 266 266 269 265 261 262 255 256 263 292 307 309 309 310 300 291 281 275 266
299 297 294 292 293 293 293 294 289 286 285 284 285 286 290 283 286 282 274 273 279 275 269 265 264 264 265 267 267 258 252 251 254 283 295 301 301 305 301 287 287 284 276
293 291 292 294 295 295 294 291 293 292 288 286 287 288 284 280 280 274 277 274 268 268 268 270 268 265 263 264 268 269 254 250 251 280 285 289 293 292 296 284 284 283 275
307 309 307 305 303 303 304 303 300 297 295 294 292 292 289 286 283 275 276 271 264 259 264 271 270 271 263 260 262 266 265 256 254 263 274 277 281 283 285 278 279 276 277
303 302 301 300 301 300 305 305 302 299 294 292 292 288 286 285 283 281 274 267 266 263 264 266 271 264 264 262 256 255 256 256 257 256 259 265 269 272 276 273 266 263 255
300 301 303 304 302 303 306 306 304 300 295 290 285 284 284 287 283 276 271 269 271 263 259 263 265 264 254 257 256 257 258 258 255 251 252 256 260 263 264 269 253 249 246
306 306 305 304 307 306 306 304 300 292 284 279 276 277 277 275 276 275 271 264 267 261 261 263 264 265 264 263 260 259 255 254 248 245 247 250 254 255 261 266 240 242 244
305 306 309 308 308 306 306 306 302 300 296 292 290 287 282 270 262 264 264 266 260 260 264 268 258 259 272 269 260 260 257 260 262 258 252 245 246 248 261 256 239 234 236
310 312 312 309 307 308 312 313 309 304 299 295 294 291 286 270 258 267 259 261 263 261 256 259 253 264 268 266 259 260 263 266 271 265 259 246 243 248 253 249 238 224 218
316 314 316 316 319 321 320 321 321 314 308 307 306 298 285 274 261 255 262 258 257 259 255 249 255 261 262 260 263 266 266 267 271 268 257 245 247 249 250 243 235 217 210
320 321 323 323 327 328 329 326 328 324 322 320 309 300 287 274 268 269 252 241 238 243 246 238 245 255 261 260 263 267 270 268 262 254 258 254 248 248 241 230 220 193 195
333 330 328 331 336 341 344 340 338 332 329 329 325 310 291 276 267 258 262 244 235 224 227 240 252 261 264 267 271 274 276 264 251 244 243 241 244 235 221 193 181 180 177
Wind_Speed_850mb
34 69 75 75 67 51 58 55 51 58 53 58 63 62 59 64 62 73 48 32 42 44 43 45 47 41 38 35 33 32 34 33 39 33 29 24 26 22 17 20 19 17 14
37 62 67 62 55 60 57 28 23 23 38 47 46 44 52 50 28 10 25 25 40 44 44 44 48 44 45 41 41 38 34 32 35 33 30 27 26 25 22 23 23 19 18
53 57 52 47 45 46 42 39 36 30 33 37 34 31 32 27 16 8 17 31 27 38 43 46 46 46 49 50 51 45 38 33 33 37 31 28 25 26 22 21 23 20 17
32 39 44 34 35 38 41 43 34 35 33 33 35 33 33 30 33 29 30 23 31 45 44 48 51 48 48 52 50 51 43 35 35 36 32 28 27 24 24 22 23 23 19
52 44 37 35 34 39 42 28 23 29 33 35 36 39 36 37 38 40 39 47 51 57 61 59 52 51 49 50 48 45 45 36 39 33 33 31 28 28 28 25 25 22 24
17 17 14 13 21 25 28 30 29 32 37 33 30 29 34 43 45 45 49 53 55 59 60 53 45 41 38 36 33 42 46 41 39 32 32 34 27 22 25 25 24 27 31
8 16 19 19 22 28 32 34 37 37 32 34 36 35 41 42 45 48 47 48 39 29 25 35 40 36 30 30 31 36 41 35 34 30 36 36 33 20 20 26 29 30 33
15 12 13 15 15 17 21 24 27 29 33 34 37 41 44 36 38 39 40 35 26 24 33 39 25 16 14 18 26 34 38 48 40 39 39 37 36 28 26 27 27 34 35
17 18 19 20 20 19 19 19 18 23 25 29 32 37 45 49 40 34 37 41 36 33 32 32 20 14 11 18 29 35 41 47 33 27 26 25 20 27 32 38 42 37 36
12 12 12 17 19 20 23 27 26 30 34 38 41 43 43 44 37 39 38 46 52 49 39 29 27 25 32 24 24 16 31 45 29 28 33 23 21 28 30 36 42 48 46
11 19 26 30 32 34 36 39 41 44 47 51 54 54 52 51 48 44 46 54 57 57 52 42 32 32 26 29 33 34 38 43 39 36 38 33 32 31 36 32 42 49 49
33 39 43 44 44 45 46 47 47 48 53 57 61 64 64 62 61 60 56 54 53 57 58 54 51 44 38 32 31 27 19 19 26 38 48 52 44 42 43 45 34 45 52
41 43 46 50 52 50 50 52 54 55 57 59 60 63 68 67 67 65 66 62 59 59 60 60 59 58 51 45 41 38 26 20 24 31 37 42 54 56 51 53 56 50 48
45 50 55 58 53 49 49 49 51 52 52 54 58 61 61 62 61 58 56 55 59 59 59 60 63 65 65 61 53 50 45 33 30 27 35 44 50 52 54 47 48 50 50
53 58 58 56 57 58 56 54 53 53 51 49 52 56 62 72 71 63 55 51 48 44 45 49 55 56 58 65 65 61 57 46 31 25 36 45 51 53 56 47 44 47 53
59 59 59 61 63 64 66 69 64 63 62 62 65 68 72 71 66 73 77 69 58 54 61 64 69 63 62 56 50 57 58 54 39 33 38 46 51 50 52 47 44 47 51
60 63 67 69 69 71 71 71 76 77 77 80 82 80 72 71 73 66 61 67 73 62 63 60 63 67 72 68 59 48 58 60 45 44 48 48 52 48 51 47 48 45 47
41 40 39 41 48 54 56 58 62 68 74 75 71 75 68 60 57 58 63 64 64 69 65 59 63 58 62 70 70 64 57 58 66 67 64 55 57 51 51 51 45 45 42
44 45 45 52 57 53 62 73 77 81 86 89 87 83 79 75 72 68 63 60 62 61 60 62 58 61 60 54 58 60 60 64 67 68 63 60 60 56 53 53 47 41 38
47 48 51 55 63 74 84 91 99 101 95 92 91 95 93 89 88 77 67 62 58 59 54 57 55 48 47 47 44 46 49 51 54 63 66 67 65 58 54 51 52 47 45
49 52 60 71 83 87 95 105 99 85 79 80 82 83 84 85 88 82 77 73 57 49 52 50 39 44 48 50 51 52 55 57 61 64 63 63 61 56 52 51 54 49 52
54 64 77 85 92 96 100 78 71 70 71 73 75 73 69 72 86 88 86 79 68 56 49 49 46 45 40 48 48 50 50 50 52 58 60 54 52 52 47 45 48 53 52
66 76 84 92 91 79 70 69 70 71 74 71 69 74 74 66 82 61 76 77 71 67 67 59 50 43 41 43 44 48 52 50 52 57 58 57 53 50 45 48 49 55 55
74 79 82 71 59 58 60 61 65 65 61 65 70 70 63 63 64 71 56 61 65 51 48 54 58 48 47 50 53 57 60 60 54 46 48 54 55 50 52 53 54 65 65
76 72 57 53 50 54 60 59 64 59 59 64 65 55 48 47 51 49 62 60 35 45 40 40 44 48 51 54 58 64 67 69 71 59 54 56 52 49 49 50 51 66 59
66 49 44 41 43 48 54 55 57 51 50 52 46 37 33 33 34 37 31 48 55 28 26 30 34 39 44 47 46 42 46 47 49 54 51 50 52 50 48 54 65 58 57
Wind_Direction_850mb
268 238 243 266 260 269 272 278 266 266 266 269 273 276 282 285 290 289 251 258 253 261 264 270 269 267 265 265 266 261 259 270 275 283 293 291 294 298 277 279 280 296 308
214 228 250 261 266 265 273 285 284 281 275 270 279 282 277 301 315 261 230 272 283 272 269 267 270 270 272 270 264 258 259 260 266 278 287 295 286 294 284 280 276 279 294
235 230 255 258 258 260 267 275 271 267 271 273 280 282 280 292 250 220 257 295 292 297 286 280 277 273 273 268 267 262 252 252 261 268 280 290 284 284 283 275 281 270 278
257 273 266 256 265 262 269 274 262 256 266 276 281 278 285 284 276 282 277 276 269 294 291 289 290 280 278 280 270 267 262 256 258 267 277 283 282 275 275 271 283 278 276
263 270 271 261 262 270 274 273 264 264 272 274 276 270 271 278 283 284 282 273 276 286 290 291 283 276 278 280 275 270 263 266 255 260 269 275 277 268 272 282 278 280 272
259 257 263 255 258 269 270 269 273 269 270 277 288 283 270 279 285 284 286 279 280 288 287 286 282 279 282 267 272 261 257 250 257 253 261 264 270 276 275 276 274 279 285
256 273 279 287 281 276 275 267 261 267 273 274 278 279 283 287 287 283 277 276 284 298 303 317 280 267 268 266 270 262 254 257 265 263 258 258 264 264 269 264 270 278 283
238 248 274 276 286 293 292 283 269 270 274 279 280 281 283 282 290 282 272 262 260 294 306 326 308 275 265 273 284 277 269 261 261 263 266 263 257 254 258 259 267 270 277
228 237 251 253 266 273 271 275 270 272 285 288 287 277 277 281 282 272 254 241 275 295 311 321 306 280 328 275 264 275 282 272 265 268 278 273 273 261 259 250 250 258 269
221 260 270 277 278 271 272 267 267 269 273 277 281 280 279 279 275 261 264 270 277 284 292 298 291 274 283 257 267 301 305 284 264 280 263 259 279 282 269 262 263 259 255
308 309 312 309 305 300 293 288 285 281 277 275 274 274 273 271 268 263 265 274 277 281 284 286 287 284 278 268 256 254 250 264 270 274 269 263 257 264 264 283 269 263 255
315 312 310 309 306 302 296 293 291 286 280 277 278 277 274 271 271 269 268 269 273 277 275 278 284 289 279 270 263 256 260 295 306 295 289 290 290 279 273 275 286 258 262
307 307 308 308 308 305 302 299 295 290 288 285 282 279 276 275 274 270 266 268 270 270 269 270 274 279 279 272 269 266 252 271 288 304 314 316 302 293 281 274 273 261 264
309 311 313 312 308 304 302 299 299 298 295 291 286 282 280 277 274 274 276 278 269 269 268 267 268 266 269 270 266 264 260 260 271 295 311 312 313 305 289 282 277 275 261
308 307 304 300 299 298 295 294 294 293 292 293 298 297 293 286 279 278 280 281 277 278 274 265 266 266 269 265 261 262 255 256 263 292 307 309 309 310 300 291 281 275 266
299 297 294 292 293 293 293 294 289 286 285 284 285 286 290 283 286 282 274 273 279 275 269 265 264 264 265 267 267 258 252 251 254 283 295 301 301 305 301 287 287 284 276
293 291 292 294 295 295 294 291 293 292 288 286 287 288 284 280 280 274 277 274 268 268 268 270 268 265 263 264 268 269 254 250 251 280 285 289 293 292 296 284 284 283 275
307 309 307 305 303 303 304 303 300 297 295 294 292 292 289 286 283 275 276 271 264 259 264 271 270 271 263 260 262 266 265 256 254 263 274 277 281 283 285 278 279 276 277
303 302 301 300 301 300 305 305 302 299 294 292 292 288 286 285 283 281 274 267 266 263 264 266 271 264 264 262 256 255 256 256 257 256 259 265 269 272 276 273 266 263 255
300 301 303 304 302 303 306 306 304 300 295 290 285 284 284 287 283 276 271 269 271 263 259 263 265 264 254 257 256 257 258 258 255 251 252 256 260 263 264 269 253 249 246
306 306 305 304 307 306 306 304 300 292 284 279 276 277 277 275 276 275 271 264 267 261 261 263 264 265 264 263 260 259 255 254 248 245 247 250 254 255 261 266 240 242 244
305 306 309 308 308 306 306 306 302 300 296 292 290 287 282 270 262 264 264 266 260 260 264 268 258 259 272 269 260 260 257 260 262 258 252 245 246 248 261 256 239 234 236
310 312 312 309 307 308 312 313 309 304 299 295 294 291 286 270 258 267 259 261 263 261 256 259 253 264 268 266 259 260 263 266 271 265 259 246 243 248 253 249 238 224 218
316 314 316 316 319 321 320 321 321 314 308 307 306 298 285 274 261 255 262 258 257 259 255 249 255 261 262 260 263 266 266 267 271 268 257 245 247 249 250 243 235 217 210
320 321 323 323 327 328 329 326 328 324 322 320 309 300 287 274 268 269 252 241 238 243 246 238 245 255 261 260 263 267 270 268 262 254 258 254 248 248 241 230 220 193 195
333 330 328 331 336 341 344 340 338 332 329 329 325 310 291 276 267 258 262 244 235 224 227 240 252 261 264 267 271 274 276 264 251 244 243 241 244 235 221 193 181 180 177